[[{"header":{"parameterUnit":"m.s-1","parameterCategory":1,"la1":30.2991,"la2":30.254,"lo1":-89.0895,"lo2":-89.0444,"dy":0.0017,"dx":0.0017,"nx":28,"ny":28,"refTime":"2024-03-29T03:00:00:Z","depth":0,"parameterNumber":2,"parameterNumberName":"U-component_of_WINDS"},"data":[0,0,0,0,0,0,0,0,0,0,0,0,0,0,0,0,0,0,0,0,0,0,0,0,0,0,0,0,0,0,0,0,0,0,0,0,0,0,0,0,0,0,0,0,0,0,0,0,0,0,0,0,0,0,0,0,0,0,0.5769,0.5769,0,0.5792,0.5792,0.5792,0.58,0.58,0.58,0.58,0.5824,0.5825,0.5826,0,0,0,0,0,0,0,0,0,0,0,0,0,0.5736,0.5736,0.5769,0.577,0.577,0.5792,0.5792,0.5792,0.58,0.58,0.58,0.58,0.5824,0.5825,0.5826,0,0,0,0,0,0,0,0,0,0,0,0,0,0.5753,0.5737,0.5769,0.5776,0.5777,0.5791,0.5792,0.5792,0.58,0.58,0.58,0.58,0.5824,0.5825,0.5826,0.5835,0,0,0.5829,0.583,0,0,0,0,0,0,0,0,0.5752,0.5755,0.5775,0.5776,0.5777,0.5793,0.5789,0.5807,0.58,0.5792,0.58,0.58,0.5814,0.5816,0.582,0.5836,0.5837,0.5829,0.583,0.583,0.5831,0,0,0,0,0,0,0,0.5751,0.5754,0.5778,0.5775,0.5776,0.5779,0.5782,0.5792,0.5803,0.5792,0.5793,0.5795,0.5815,0.5819,0.5821,0.5838,0.5829,0.583,0.5831,0.5831,0.5864,0.5864,0,0,0,0,0,0,0.5749,0.5753,0.5777,0.5779,0.5764,0.578,0.5783,0.5788,0.5803,0.5805,0.5795,0.5796,0.5818,0.582,0.5822,0.5835,0.583,0.5831,0.5832,0.5864,0.5864,0.5864,0,0,0,0,0,0,0.5748,0.5751,0.5777,0.5766,0.5769,0.5781,0.5787,0.5788,0.5793,0.5806,0.5808,0.5798,0.5818,0.582,0.5832,0.5836,0.5832,0.5833,0.5863,0.5864,0.5864,0.586,0,0,0,0,0,0,0.5747,0.575,0.5753,0.5766,0.577,0.5785,0.5787,0.5789,0.5795,0.5795,0.5809,0.5811,0.5818,0.583,0.5833,0.5837,0.5834,0.5863,0.5864,0.5864,0.5859,0.586,0.586,0,0,0,0,0,0.5746,0.5751,0.5753,0.5756,0.5774,0.5786,0.5788,0.5795,0.5795,0.5799,0.5807,0.581,0.5835,0.5831,0.5835,0.5839,0.5863,0.5863,0.5864,0.5859,0.586,0.586,0,0,0,0,0,0,0.5739,0.5753,0.5756,0.5765,0.5774,0.5787,0.5791,0.5795,0.5805,0.5805,0.5814,0.5817,0.5828,0.5835,0.5831,0.585,0.5849,0.585,0.5845,0.5845,0.5845,0.5844,0.5835,0,0,0,0,0,0.5739,0.5746,0.5758,0.5766,0.577,0.578,0.5785,0.579,0.58,0.5804,0.5813,0.5823,0.5833,0.5839,0.5849,0.5861,0.5864,0.5865,0.5865,0.5866,0.5867,0.5874,0.5875,0.5866,0.5866,0.5866,0,0,0.5738,0.5747,0.5751,0.5765,0.5772,0.5781,0.5783,0.5792,0.5799,0.5806,0.5817,0.5824,0.5836,0.5848,0.5853,0.5854,0.587,0.5866,0.5866,0.5867,0.5875,0.5876,0.5877,0.5866,0.5866,0.5866,0,0,0.5741,0.5748,0.5756,0.5763,0.5774,0.5781,0.5783,0.5795,0.58,0.5812,0.5818,0.5826,0.5843,0.5852,0.5858,0.5866,0.587,0.5869,0.587,0.5878,0.5879,0.588,0.5883,0.5885,0.587,0.587,0.587,0,0.5739,0.5752,0.5759,0.5768,0.5774,0.5781,0.5789,0.5796,0.581,0.5815,0.5815,0.5837,0.5845,0.586,0.5862,0.5867,0.587,0.5868,0.5878,0.5879,0.588,0.5883,0.5885,0.587,0.587,0.587,0.587,0,0.5749,0.5758,0.5763,0.5776,0.5783,0.5791,0.5801,0.5807,0.5812,0.5819,0.5832,0.5842,0.5855,0.5859,0.5863,0.5874,0.5874,0.5876,0.5876,0.588,0.5884,0.5885,0.587,0.587,0.587,0.587,0,0,0.5748,0.5766,0.5768,0.5774,0.5788,0.5795,0.5805,0.5817,0.5822,0.5832,0.5841,0.5856,0.5858,0.5865,0.5871,0.5878,0.5885,0.5879,0.5879,0.588,0.5899,0.5898,0.59,0.5888,0.5888,0.5888,0.5898,0,0.5754,0.577,0.5777,0.5791,0.58,0.5807,0.5815,0.5825,0.5832,0.5841,0.585,0.586,0.5862,0.5866,0.5873,0.5882,0.5889,0.5882,0.5897,0.5897,0.5894,0.5901,0.59,0.5909,0.59,0.59,0.59,0,0.5762,0.5772,0.5786,0.5799,0.5803,0.5811,0.5823,0.5831,0.5843,0.5848,0.5857,0.5863,0.5875,0.5874,0.589,0.5885,0.5892,0.5898,0.5899,0.5901,0.5899,0.5904,0.5912,0.5914,0.5902,0.5902,0.5902,0,0.5761,0.5778,0.5788,0.5794,0.581,0.5815,0.5822,0.5833,0.5841,0.5852,0.5857,0.5869,0.5876,0.5886,0.5896,0.5894,0.5912,0.5912,0.5918,0.5918,0.5921,0.5921,0.5931,0.5925,0.5925,0.5925,0.5925,0,0.5766,0.5775,0.5788,0.5795,0.5805,0.5814,0.5825,0.5832,0.5843,0.5852,0.5859,0.5868,0.588,0.5891,0.5898,0.5912,0.5915,0.592,0.5922,0.5919,0.5919,0.5924,0.5924,0.5925,0.5925,0.5925,0.5925,0,0.5767,0.5776,0.5788,0.5802,0.5806,0.5813,0.5826,0.5834,0.5841,0.5853,0.5857,0.5869,0.5882,0.5893,0.591,0.5915,0.593,0.5932,0.5926,0.5927,0.5932,0.5932,0.5947,0.595,0.5941,0.5941,0.5941,0,0.577,0.5776,0.5791,0.5798,0.5805,0.5815,0.5822,0.5832,0.584,0.5855,0.5861,0.5874,0.5886,0.5907,0.5918,0.5932,0.5935,0.5939,0.5937,0.5934,0.5936,0.5935,0.5937,0.5939,0.5939,0.5939,0.5939,0,0.5774,0.5779,0.5789,0.5801,0.581,0.582,0.583,0.5835,0.5847,0.5856,0.5869,0.5878,0.5896,0.591,0.5925,0.5933,0.5939,0.594,0.5942,0.594,0.5936,0.5939,0.5927,0.5939,0.5939,0.5939,0.5939,0.5939,0.5777,0.5783,0.5795,0.5807,0.5816,0.5826,0.5834,0.5843,0.5854,0.5869,0.5874,0.5888,0.5902,0.5922,0.5931,0.5943,0.5944,0.5946,0.5947,0.5948,0.5948,0.5934,0.5946,0.5946,0.5946,0.5946,0.5946,0,0.5782,0.579,0.5801,0.5815,0.5825,0.5828,0.5841,0.5849,0.5861,0.5872,0.5883,0.59,0.5914,0.5927,0.5941,0.5949,0.5952,0.5952,0.5952,0.5954,0.5946,0.5943,0.595,0.595,0.595,0.595,0.595,0.595,0.5786,0.5798,0.5804,0.5822,0.583,0.5843,0.585,0.586,0.5869,0.5887,0.5898,0.5907,0.5919,0.5936,0.5949,0.5953,0.5958,0.5958,0.5963,0.5955,0.5955,0.5954,0.5951,0.5959,0.5959,0.597,0.597,0.597]},{"header":{"parameterUnit":"m.s-1","parameterCategory":1,"la1":30.2991,"la2":30.254,"lo1":-89.0895,"lo2":-89.0444,"dy":0.0017,"dx":0.0017,"nx":28,"ny":28,"refTime":"2024-03-29T03:00:00:Z","depth":0,"parameterNumber":3,"parameterNumberName":"V-component_of_WINDS"},"data":[0,0,0,0,0,0,0,0,0,0,0,0,0,0,0,0,0,0,0,0,0,0,0,0,0,0,0,0,0,0,0,0,0,0,0,0,0,0,0,0,0,0,0,0,0,0,0,0,0,0,0,0,0,0,0,0,0,0,-1.908,-1.908,0,-1.9138,-1.9138,-1.9139,-1.9164,-1.9164,-1.9164,-1.9164,-1.922,-1.9222,-1.9223,0,0,0,0,0,0,0,0,0,0,0,0,0,-1.8988,-1.8989,-1.908,-1.908,-1.9081,-1.9137,-1.9138,-1.9139,-1.9164,-1.9164,-1.9164,-1.9164,-1.922,-1.9221,-1.9223,0,0,0,0,0,0,0,0,0,0,0,0,0,-1.9035,-1.899,-1.9079,-1.91,-1.9103,-1.9137,-1.9138,-1.9139,-1.9164,-1.9164,-1.9164,-1.9164,-1.9219,-1.9221,-1.9224,-1.9241,0,0,-1.9231,-1.9232,0,0,0,0,0,0,0,0,-1.9032,-1.9038,-1.9097,-1.9099,-1.9102,-1.9143,-1.9127,-1.9173,-1.9164,-1.9141,-1.9164,-1.9164,-1.9194,-1.9199,-1.921,-1.9243,-1.9246,-1.9231,-1.9232,-1.9233,-1.9234,0,0,0,0,0,0,0,-1.9029,-1.9036,-1.9102,-1.9097,-1.9101,-1.9106,-1.9112,-1.9135,-1.9167,-1.9143,-1.9145,-1.9151,-1.9196,-1.9208,-1.9211,-1.9247,-1.9231,-1.9233,-1.9235,-1.9235,-1.9297,-1.9297,0,0,0,0,0,0,-1.9022,-1.9033,-1.9101,-1.9104,-1.9066,-1.9108,-1.9115,-1.913,-1.9167,-1.9173,-1.9151,-1.9152,-1.9204,-1.9209,-1.9213,-1.9236,-1.9233,-1.9236,-1.9237,-1.9297,-1.9297,-1.9297,0,0,0,0,0,0,-1.902,-1.9028,-1.9098,-1.9069,-1.9078,-1.9109,-1.9126,-1.9131,-1.9143,-1.9174,-1.9179,-1.9158,-1.9204,-1.921,-1.9234,-1.9238,-1.9237,-1.9239,-1.9296,-1.9297,-1.9297,-1.9281,0,0,0,0,0,0,-1.9018,-1.9027,-1.9035,-1.9069,-1.908,-1.9118,-1.9126,-1.9133,-1.9147,-1.9149,-1.9181,-1.9186,-1.9204,-1.923,-1.9236,-1.9242,-1.9241,-1.9296,-1.9297,-1.9297,-1.9282,-1.9281,-1.9281,0,0,0,0,0,-1.9014,-1.9027,-1.9035,-1.9043,-1.909,-1.9119,-1.9125,-1.9146,-1.9148,-1.9155,-1.9175,-1.9185,-1.9237,-1.9233,-1.9239,-1.9246,-1.9296,-1.9296,-1.9297,-1.9282,-1.9281,-1.9281,0,0,0,0,0,0,-1.8992,-1.9032,-1.9041,-1.9066,-1.9089,-1.9123,-1.9133,-1.9144,-1.9166,-1.9167,-1.9191,-1.9198,-1.922,-1.9235,-1.9229,-1.9264,-1.9267,-1.9269,-1.9253,-1.9253,-1.9253,-1.9248,-1.9243,0,0,0,0,0,-1.899,-1.9011,-1.9045,-1.9063,-1.9074,-1.9102,-1.9115,-1.9129,-1.9153,-1.9163,-1.9184,-1.9206,-1.9228,-1.9241,-1.9262,-1.9284,-1.9291,-1.9291,-1.9291,-1.929,-1.9292,-1.9304,-1.9305,-1.9299,-1.9299,-1.9299,0,0,-1.8986,-1.9011,-1.9022,-1.9059,-1.9079,-1.9099,-1.9109,-1.913,-1.9145,-1.9166,-1.919,-1.9206,-1.9233,-1.9255,-1.9266,-1.9269,-1.9295,-1.9291,-1.929,-1.9292,-1.9305,-1.9305,-1.9306,-1.9299,-1.9299,-1.9299,0,0,-1.8989,-1.901,-1.9028,-1.9047,-1.9077,-1.9095,-1.9099,-1.9132,-1.9144,-1.9169,-1.9184,-1.9202,-1.9238,-1.9256,-1.927,-1.928,-1.9291,-1.9286,-1.9284,-1.9296,-1.9296,-1.9297,-1.93,-1.9301,-1.9288,-1.9288,-1.9288,0,-1.898,-1.9012,-1.9035,-1.9056,-1.9072,-1.9092,-1.911,-1.9127,-1.9161,-1.9171,-1.9174,-1.922,-1.9239,-1.9266,-1.9269,-1.9279,-1.9284,-1.9283,-1.9294,-1.9295,-1.9296,-1.93,-1.9301,-1.9287,-1.9287,-1.9287,-1.9287,0,-1.9,-1.9022,-1.9032,-1.9067,-1.9083,-1.9102,-1.9127,-1.9142,-1.9154,-1.9172,-1.9196,-1.922,-1.9247,-1.9254,-1.9266,-1.9283,-1.9284,-1.929,-1.9294,-1.9296,-1.9299,-1.9301,-1.9286,-1.9286,-1.9286,-1.9287,0,0,-1.899,-1.9037,-1.9041,-1.9057,-1.9091,-1.9108,-1.9127,-1.9154,-1.9166,-1.9189,-1.9205,-1.9236,-1.9242,-1.9257,-1.9272,-1.9282,-1.9289,-1.9287,-1.9288,-1.9287,-1.9309,-1.9304,-1.9305,-1.9296,-1.9296,-1.9297,-1.9306,0,-1.8998,-1.9036,-1.9057,-1.9085,-1.9105,-1.9125,-1.9142,-1.9164,-1.9181,-1.92,-1.9218,-1.9239,-1.9245,-1.9255,-1.9266,-1.9286,-1.9293,-1.9285,-1.9311,-1.9312,-1.9304,-1.9307,-1.9302,-1.9311,-1.9308,-1.9308,-1.9309,0,-1.9013,-1.9036,-1.9067,-1.9099,-1.9108,-1.9123,-1.9149,-1.9168,-1.9193,-1.9204,-1.9222,-1.9237,-1.9257,-1.9259,-1.9288,-1.9282,-1.9293,-1.9304,-1.9305,-1.9309,-1.931,-1.9311,-1.9314,-1.9315,-1.9311,-1.9311,-1.9311,0,-1.9003,-1.9042,-1.9066,-1.9078,-1.9116,-1.9126,-1.9142,-1.9168,-1.9183,-1.9205,-1.9215,-1.9239,-1.9253,-1.9271,-1.9291,-1.9291,-1.9317,-1.9321,-1.9327,-1.9327,-1.9332,-1.9331,-1.9337,-1.9339,-1.9339,-1.9339,-1.9339,0,-1.901,-1.9027,-1.9062,-1.9076,-1.9096,-1.912,-1.9139,-1.9157,-1.9179,-1.9197,-1.9214,-1.923,-1.9256,-1.9275,-1.9291,-1.9312,-1.9318,-1.9327,-1.9331,-1.9326,-1.9324,-1.9334,-1.9334,-1.934,-1.9339,-1.9339,-1.9339,0,-1.9002,-1.9026,-1.9053,-1.9087,-1.9096,-1.9109,-1.9138,-1.9152,-1.917,-1.9191,-1.9198,-1.9226,-1.9249,-1.9271,-1.9301,-1.9312,-1.9333,-1.9338,-1.9325,-1.9327,-1.9332,-1.9331,-1.9344,-1.9346,-1.9346,-1.9346,-1.9346,0,-1.9005,-1.9019,-1.9055,-1.9069,-1.9085,-1.9106,-1.9121,-1.9145,-1.916,-1.919,-1.9201,-1.9225,-1.9246,-1.9282,-1.9304,-1.9328,-1.9334,-1.9336,-1.9337,-1.9331,-1.9334,-1.9333,-1.9334,-1.9336,-1.9336,-1.9336,-1.9335,0,-1.9007,-1.9019,-1.9041,-1.9067,-1.9086,-1.9107,-1.9129,-1.9139,-1.9167,-1.9183,-1.9207,-1.9223,-1.9255,-1.9279,-1.9305,-1.9321,-1.9332,-1.9335,-1.9338,-1.9332,-1.9324,-1.9329,-1.9323,-1.9335,-1.9335,-1.9335,-1.9335,-1.9335,-1.9006,-1.9019,-1.9047,-1.9071,-1.909,-1.911,-1.9125,-1.9145,-1.9166,-1.9195,-1.9207,-1.9231,-1.9256,-1.9293,-1.9308,-1.9327,-1.933,-1.9333,-1.9334,-1.9335,-1.9334,-1.9321,-1.9332,-1.9332,-1.9332,-1.9332,-1.9332,0,-1.9009,-1.9028,-1.905,-1.908,-1.9099,-1.911,-1.9135,-1.9149,-1.9171,-1.9194,-1.9214,-1.9242,-1.9265,-1.9289,-1.9314,-1.9324,-1.933,-1.933,-1.9329,-1.9333,-1.933,-1.9325,-1.9325,-1.9325,-1.9325,-1.9325,-1.9325,-1.9325,-1.9013,-1.9037,-1.9051,-1.9084,-1.9103,-1.9128,-1.9141,-1.9159,-1.9178,-1.9208,-1.9228,-1.9244,-1.9267,-1.9293,-1.9315,-1.9322,-1.933,-1.9328,-1.9336,-1.9333,-1.9333,-1.9333,-1.9329,-1.9329,-1.9329,-1.9337,-1.9337,-1.9337]}]]